Louisville, KY

12:47 PM EST on December 18, 2017 (GMT -0500)
Louisville International-Standiford

Weather History for KSDF - February, 2014

Change the Weather History Date:

Wednesday, February 26, 2014

  Actual Average Record
Temperature  
Mean Temperature 23 °F 42 °F  
Max Temperature 29 °F 51 °F 76 °F (2000)
Min Temperature 17 °F 33 °F 5 °F (1967)
Degree Days  
Heating Degree Days 42 23  
Month to date heating degree days 822 686  
Since 1 July heating degree days 3582 3195  
Cooling Degree Days 0 0  
Month to date cooling degree days 0 0  
Year to date cooling degree days 0 0  
Moisture  
Dew Point 9 °F    
Average Humidity 57    
Maximum Humidity 81    
Minimum Humidity 33    
Precipitation  
Precipitation 0.01 in 0.11 in 2.85 in (1945)
Month to date precipitation 3.75 2.95  
Year to date precipitation 6.16 6.19  
Snow  
Snow 0.20 in 0.10 in 5.50 in (1906)
Month to date snowfall 7.7 4.3  
Since 1 July snowfall 21.8 10.8  
Snow Depth T in    
Sea Level Pressure  
Sea Level Pressure 30.13 in    
Wind  
Wind Speed 10 mph (WNW)    
Max Wind Speed 21 mph    
Max Gust Speed 26 mph    
Visibility 9 miles    
Events Snow    
T = Trace of Precipitation, MM = Missing Value Source: NWS Daily Summary

Daily Weather History Graph

Daily Weather History Graph

Search for Another Location

Airport or City:

Trip Planner

Search our weather history database for the weather conditions in past years. The results will help you decide how hot, cold, wet, or windy it might be!

Date:

Astronomy

Feb. 26, 2014 Rise Set
Actual Time 7:18 AM EST 6:33 PM EST
Civil Twilight 6:52 AM EST 6:59 PM EST
Nautical Twilight 6:21 AM EST 7:30 PM EST
Astronomical Twilight 5:51 AM EST 8:00 PM EST
Moon 5:02 AM EST (2/26) 3:48 PM EST (2/26)
Length of Visible Light 12h 07m
Length of Day
11h 14m
Waning Crescent, 10% of the Moon is Illuminated
Feb 26
Waning Crescent
Mar 1
New
Mar 8
First Quarter
Mar 16
Full
Mar 23
Last Quarter

Hourly Weather History & Observations

Time (EST) Temp. Windchill Dew Point Humidity Pressure Visibility Wind Dir Wind Speed Gust Speed Precip Events Conditions
12:11 AM 26.6 °F 16.8 °F 19.4 °F 74% 30.15 in 6.0 mi NW 10.4 mph - 0.00 in Snow Light Snow
12:38 AM 26.6 °F 16.2 °F 19.4 °F 74% 30.15 in 4.0 mi WNW 11.5 mph - 0.00 in Snow Light Snow
12:56 AM 25.0 °F 13.6 °F 19.9 °F 81% 30.16 in 3.0 mi WNW 12.7 mph - 0.01 in Snow Light Snow
1:19 AM 24.8 °F 16.1 °F 19.4 °F 80% 30.14 in 4.0 mi WNW 8.1 mph - 0.00 in Snow Light Snow
1:56 AM 25.0 °F 15.5 °F 18.0 °F 75% 30.15 in 9.0 mi NW 9.2 mph - 0.00 in Snow Light Snow
2:08 AM 26.6 °F 16.8 °F 17.6 °F 69% 30.14 in 9.0 mi NW 10.4 mph - 0.00 in   Overcast
2:45 AM 24.8 °F 13.4 °F 15.8 °F 69% 30.14 in 10.0 mi NW 12.7 mph - 0.00 in   Overcast
2:56 AM 25.0 °F 13.6 °F 16.0 °F 69% 30.16 in 9.0 mi NW 12.7 mph 20.7 mph 0.00 in   Overcast
3:23 AM 24.8 °F 13.4 °F 19.4 °F 80% 30.14 in 2.0 mi NW 12.7 mph - 0.00 in Snow Light Snow
3:42 AM 24.8 °F 14.0 °F 19.4 °F 80% 30.15 in 5.0 mi NW 11.5 mph - 0.00 in Snow Light Snow
3:47 AM 24.8 °F 11.9 °F 17.6 °F 74% 30.14 in 8.0 mi NW 16.1 mph 24.2 mph 0.00 in Snow Light Snow
3:56 AM 24.1 °F 10.6 °F 15.1 °F 69% 30.16 in 9.0 mi NW 17.3 mph 24.2 mph 0.00 in   Overcast
4:56 AM 23.0 °F 10.6 °F 10.9 °F 60% 30.17 in 10.0 mi NW 13.8 mph - N/A   Overcast
5:56 AM 21.0 °F 7.6 °F 8.1 °F 57% 30.21 in 10.0 mi NNW 15.0 mph 20.7 mph N/A   Overcast
6:56 AM 19.0 °F 10.0 °F 7.0 °F 59% 30.22 in 10.0 mi NW 6.9 mph - N/A   Mostly Cloudy
7:48 AM 19.4 °F 5.5 °F 6.8 °F 58% 30.21 in 9.0 mi NW 15.0 mph 21.9 mph 0.00 in   Mostly Cloudy
7:54 AM 17.6 °F 2.7 °F 3.2 °F 53% 30.21 in 9.0 mi NW 16.1 mph - 0.00 in Snow Light Snow
7:56 AM 17.1 °F 2.0 °F 3.0 °F 54% 30.23 in 9.0 mi NW 16.1 mph - 0.00 in Snow Light Snow
8:56 AM 17.1 °F 3.0 °F 3.9 °F 56% 30.25 in 10.0 mi NW 13.8 mph - 0.00 in   Partly Cloudy
9:56 AM 19.0 °F 6.1 °F 5.0 °F 54% 30.26 in 10.0 mi NW 12.7 mph - N/A   Scattered Clouds
10:56 AM 19.9 °F 14.9 °F 3.9 °F 50% 30.23 in 10.0 mi Variable 3.5 mph - N/A   Scattered Clouds
11:56 AM 21.9 °F 13.4 °F 5.0 °F 48% 30.21 in 10.0 mi NE 6.9 mph - N/A   Partly Cloudy
12:56 PM 21.9 °F 15.7 °F 3.9 °F 46% 30.18 in 10.0 mi Variable 4.6 mph - N/A   Partly Cloudy
1:56 PM 26.1 °F 17.6 °F 3.9 °F 39% 30.14 in 10.0 mi NNW 8.1 mph - N/A   Partly Cloudy
2:56 PM 26.1 °F 17.6 °F 3.0 °F 37% 30.10 in 10.0 mi WNW 8.1 mph - N/A   Partly Cloudy
3:56 PM 26.1 °F 17.6 °F 1.9 °F 35% 30.06 in 10.0 mi WSW 8.1 mph - N/A   Clear
4:56 PM 27.0 °F 21.6 °F 1.9 °F 34% 30.04 in 10.0 mi West 4.6 mph - N/A   Clear
5:56 PM 26.1 °F 16.2 °F 1.0 °F 34% 30.02 in 10.0 mi West 10.4 mph - N/A   Clear
6:56 PM 24.1 °F 13.7 °F 1.0 °F 37% 30.01 in 10.0 mi WSW 10.4 mph - N/A   Clear
7:56 PM 23.0 °F 11.7 °F 1.9 °F 40% 30.01 in 10.0 mi WSW 11.5 mph - N/A   Clear
8:56 PM 21.9 °F 11.0 °F 3.0 °F 44% 29.99 in 10.0 mi WSW 10.4 mph - N/A   Clear
9:56 PM 21.0 °F 9.3 °F 3.9 °F 48% 30.00 in 10.0 mi WSW 11.5 mph - N/A   Clear
10:56 PM 21.0 °F 9.9 °F 5.0 °F 50% 29.99 in 10.0 mi WSW 10.4 mph - N/A   Clear
11:56 PM 19.9 °F 8.6 °F 6.1 °F 55% 29.99 in 10.0 mi WSW 10.4 mph - N/A   Clear